Weather History for KACP - December, 2013

Change the Weather History Date:

Monday, December 23, 2013

  Actual Average (KPOE) Record (KPOE)
Temperature  
Mean Temperature 39 °F -  
Max Temperature 49 °F 56 °F 73 °F (1996)
Min Temperature 29 °F 36 °F 28 °F (1998)
Degree Days  
Heating Degree Days 26    
Moisture  
Dew Point 31 °F    
Average Humidity 74    
Maximum Humidity 96    
Minimum Humidity 46    
Precipitation  
Precipitation 0.00 in - - ()
Sea Level Pressure  
Sea Level Pressure 30.41 in    
Wind  
Wind Speed 10 mph (North)    
Max Wind Speed 16 mph    
Max Gust Speed 22 mph    
Visibility 10 miles    
Events      
Averages and records for this station are not official NWS values.
T = Trace of Precipitation, MM = Missing Value Source: NWS Daily Summary

Daily Weather History Graph

Daily Weather History Graph

Search for Another Location

Airport or City:

Trip Planner

Search our weather history database for the weather conditions in past years. The results will help you decide how hot, cold, wet, or windy it might be!

Date:

Astronomy

Dec. 23, 2013 Rise Set
Actual Time 7:05 AM CST 5:14 PM CST
Civil Twilight 6:38 AM CST 5:41 PM CST
Nautical Twilight 6:08 AM CST 6:11 PM CST
Astronomical Twilight 5:39 AM CST 6:41 PM CST
Moon 11:01 PM CST (12/23) 10:52 AM CST (12/23)
Length of Visible Light 11h 02m
Length of Day
10h 09m
Waning Gibbous, 68% of the Moon is Illuminated
Dec 23
Waning Gibbous
Dec 25
Last Quarter
Jan 1
New
Jan 7
First Quarter
Jan 15
Full

Hourly Weather History & Observations

Time (CST) Temp. Windchill Dew Point Humidity Pressure Visibility Wind Dir Wind Speed Gust Speed Precip Events Conditions
12:15 AM 39.4 °F 31.4 °F 33.3 °F 79% 30.29 in 10.0 mi NNW 13.8 mph 19.6 mph N/A   Overcast
12:35 AM 39.2 °F 32.5 °F 32.9 °F 78% 30.29 in 10.0 mi NW 10.4 mph 18.4 mph N/A   Overcast
12:55 AM 38.7 °F 30.5 °F 32.2 °F 78% 30.29 in 10.0 mi North 13.8 mph 20.7 mph N/A   Overcast
1:15 AM 38.5 °F 29.6 °F 32.0 °F 78% 30.30 in 10.0 mi NNW 16.1 mph 21.9 mph N/A   Overcast
1:35 AM 38.5 °F 31.6 °F 32.2 °F 78% 30.30 in 10.0 mi NNW 10.4 mph - N/A   Overcast
1:55 AM 38.7 °F 32.4 °F 32.7 °F 79% 30.30 in 10.0 mi North 9.2 mph - N/A   Overcast
2:15 AM 38.7 °F 30.9 °F 32.2 °F 78% 30.30 in 10.0 mi North 12.7 mph 16.1 mph N/A   Overcast
2:35 AM 38.3 °F 31.9 °F 32.0 °F 78% 30.30 in 10.0 mi North 9.2 mph 12.7 mph N/A   Overcast
2:55 AM 38.3 °F 31.9 °F 32.2 °F 79% 30.30 in 10.0 mi North 9.2 mph - N/A   Overcast
3:15 AM 38.5 °F 32.1 °F 32.4 °F 79% 30.30 in 10.0 mi North 9.2 mph - N/A   Overcast
3:35 AM 38.5 °F 32.1 °F 32.2 °F 78% 30.30 in 10.0 mi North 9.2 mph 17.3 mph N/A   Overcast
3:55 AM 38.5 °F 32.1 °F 32.2 °F 78% 30.31 in 10.0 mi North 9.2 mph - N/A   Overcast
4:15 AM 38.5 °F 32.1 °F 32.0 °F 78% 30.31 in 10.0 mi North 9.2 mph 17.3 mph N/A   Overcast
4:35 AM 38.7 °F 31.4 °F 32.2 °F 78% 30.31 in 10.0 mi North 11.5 mph 19.6 mph N/A   Overcast
4:55 AM 38.5 °F 32.1 °F 32.2 °F 78% 30.31 in 10.0 mi North 9.2 mph - N/A   Overcast
5:15 AM 38.5 °F 31.1 °F 32.2 °F 78% 30.32 in 10.0 mi North 11.5 mph - N/A   Overcast
5:35 AM 38.3 °F 31.4 °F 32.0 °F 78% 30.33 in 10.0 mi North 10.4 mph 17.3 mph N/A   Overcast
5:55 AM 38.3 °F 30.9 °F 32.0 °F 78% 30.34 in 10.0 mi North 11.5 mph - N/A   Overcast
6:15 AM 38.3 °F 30.9 °F 32.0 °F 78% 30.34 in 10.0 mi North 11.5 mph 17.3 mph N/A   Overcast
6:35 AM 38.3 °F 32.5 °F 32.0 °F 78% 30.36 in 10.0 mi North 8.1 mph 18.4 mph N/A   Overcast
6:55 AM 38.3 °F 31.9 °F 32.0 °F 78% 30.37 in 10.0 mi North 9.2 mph - N/A   Overcast
7:15 AM 38.3 °F 30.5 °F 32.0 °F 78% 30.38 in 10.0 mi North 12.7 mph 18.4 mph N/A   Overcast
7:35 AM 38.3 °F 31.4 °F 32.0 °F 78% 30.39 in 10.0 mi North 10.4 mph 18.4 mph N/A   Overcast
7:55 AM 38.3 °F 30.5 °F 32.0 °F 78% 30.39 in 10.0 mi North 12.7 mph - N/A   Overcast
8:15 AM 38.5 °F 31.6 °F 32.0 °F 78% 30.40 in 10.0 mi North 10.4 mph - N/A   Overcast
8:35 AM 38.8 °F 32.6 °F 32.2 °F 77% 30.41 in 10.0 mi North 9.2 mph - N/A   Overcast
8:55 AM 39.0 °F 33.4 °F 32.0 °F 76% 30.42 in 10.0 mi NNE 8.1 mph - N/A   Overcast
9:15 AM 39.4 °F 34.5 °F 31.6 °F 74% 30.44 in 10.0 mi North 6.9 mph - N/A   Mostly Cloudy
9:35 AM 40.6 °F 32.7 °F 31.5 °F 70% 30.45 in 10.0 mi NNW 15.0 mph 19.6 mph N/A   Mostly Cloudy
9:55 AM 41.5 °F 34.2 °F 31.6 °F 68% 30.45 in 10.0 mi NE 13.8 mph - N/A   Mostly Cloudy
10:15 AM 41.5 °F 34.6 °F 31.8 °F 68% 30.46 in 10.0 mi NE 12.7 mph 18.4 mph N/A   Mostly Cloudy
10:35 AM 41.2 °F 34.5 °F 31.3 °F 68% 30.46 in 10.0 mi North 11.5 mph 17.3 mph N/A   Overcast
10:55 AM 40.5 °F 33.6 °F 30.9 °F 69% 30.46 in 10.0 mi NNE 11.5 mph - N/A   Mostly Cloudy
11:15 AM 42.3 °F 35.1 °F 31.8 °F 67% 30.46 in 10.0 mi NNW 13.8 mph 17.3 mph N/A   Mostly Cloudy
11:35 AM 43.3 °F 36.5 °F 31.8 °F 64% 30.45 in 10.0 mi North 13.8 mph 17.3 mph N/A   Scattered Clouds
11:55 AM 45.0 °F 39.7 °F 32.0 °F 60% 30.44 in 10.0 mi NNW 10.4 mph 16.1 mph N/A   Clear
12:15 PM 45.1 °F 41.4 °F 31.3 °F 58% 30.43 in 10.0 mi North 6.9 mph 19.6 mph N/A   Clear
12:35 PM 46.4 °F 42.9 °F 30.4 °F 54% 30.42 in 10.0 mi NNE 6.9 mph - N/A   Clear
12:55 PM 47.3 °F - 29.8 °F 51% 30.42 in 10.0 mi North 10.4 mph 17.3 mph N/A   Clear
1:15 PM 48.2 °F - 30.9 °F 51% 30.41 in 10.0 mi NNW 11.5 mph 21.9 mph N/A   Clear
1:35 PM 48.6 °F - 31.1 °F 51% 30.41 in 10.0 mi North 11.5 mph 17.3 mph N/A   Clear
1:55 PM 48.6 °F - 31.6 °F 52% 30.41 in 10.0 mi NW 8.1 mph 16.1 mph N/A   Clear
2:15 PM 48.9 °F - 31.3 °F 51% 30.41 in 10.0 mi NNW 12.7 mph 16.1 mph N/A   Clear
2:35 PM 49.5 °F - 30.7 °F 49% 30.42 in 10.0 mi NW 11.5 mph 18.4 mph N/A   Clear
2:55 PM 49.1 °F - 30.9 °F 50% 30.41 in 10.0 mi North 10.4 mph 18.4 mph N/A   Clear
3:15 PM 48.6 °F - 28.9 °F 47% 30.41 in 10.0 mi North 10.4 mph - N/A   Clear
3:35 PM 49.1 °F - 29.5 °F 47% 30.41 in 10.0 mi North 11.5 mph - N/A   Clear
3:55 PM 48.4 °F - 28.6 °F 46% 30.41 in 10.0 mi North 9.2 mph 16.1 mph N/A   Clear
4:15 PM 47.8 °F - 28.9 °F 48% 30.42 in 10.0 mi North 9.2 mph - N/A   Clear
4:35 PM 46.8 °F - 29.1 °F 50% 30.43 in 10.0 mi North 9.2 mph - N/A   Clear
4:55 PM 45.3 °F 42.3 °F 30.0 °F 55% 30.44 in 10.0 mi NNW 5.8 mph - N/A   Clear
5:15 PM 43.2 °F 39.7 °F 29.8 °F 59% 30.45 in 10.0 mi North 5.8 mph - N/A   Clear
5:35 PM 41.4 °F 38.4 °F 30.2 °F 65% 30.45 in 10.0 mi NNW 4.6 mph - N/A   Clear
5:55 PM 40.1 °F 36.9 °F 30.7 °F 69% 30.46 in 10.0 mi NNW 4.6 mph - N/A   Clear
6:15 PM 38.8 °F 35.4 °F 31.1 °F 74% 30.46 in 10.0 mi NNW 4.6 mph - N/A   Clear
6:35 PM 38.3 °F 35.9 °F 31.5 °F 76% 30.47 in 10.0 mi North 3.5 mph - N/A   Clear
6:55 PM 38.3 °F 35.9 °F 31.1 °F 75% 30.47 in 10.0 mi North 3.5 mph - N/A   Clear
7:15 PM 36.7 °F 34.1 °F 31.1 °F 80% 30.48 in 10.0 mi North 3.5 mph - N/A   Clear
7:35 PM 34.2 °F - 31.6 °F 90% 30.48 in 10.0 mi Calm Calm - N/A   Clear
7:55 PM 33.3 °F - 31.8 °F 94% 30.49 in 10.0 mi Calm Calm - N/A   Clear
8:15 PM 32.2 °F - 30.7 °F 94% 30.49 in 10.0 mi Calm Calm - N/A   Clear
8:35 PM 32.0 °F - 30.9 °F 96% 30.50 in 7.0 mi Calm Calm - N/A   Clear
8:55 PM 31.8 °F - 30.6 °F 95% 30.51 in 7.0 mi Calm Calm - N/A   Clear
9:15 PM 31.5 °F - 30.2 °F 95% 30.52 in 5.0 mi Calm Calm - N/A   Clear
9:35 PM 30.7 °F - 29.5 °F 95% 30.52 in 7.0 mi Calm Calm - N/A   Clear
9:55 PM 30.6 °F - 29.3 °F 95% 30.52 in 7.0 mi Calm Calm - N/A   Clear
10:15 PM 30.4 °F - 29.3 °F 96% 30.53 in 7.0 mi Calm Calm - N/A   Clear
10:35 PM 30.2 °F - 29.1 °F 96% 30.53 in 7.0 mi Calm Calm - N/A   Clear
10:55 PM 30.0 °F - 28.9 °F 96% 30.53 in 7.0 mi Calm Calm - N/A   Clear
11:15 PM 29.5 °F - 28.2 °F 95% 30.53 in 7.0 mi Calm Calm - N/A   Clear
11:35 PM 29.8 °F - 28.4 °F 94% 30.52 in 7.0 mi Calm Calm - N/A   Clear
11:55 PM 29.1 °F - 27.7 °F 94% 30.52 in 7.0 mi Calm Calm - N/A   Clear